User: anonymous
Location: Vancouver
(49.2500°N, 123.1330°W)
Time: 12:53:42
(UTC-07:00)
Language:

SO-67 - Orbit

View from above orbital plane
View from above orbital plane
View from above satellite
View from above satellite

Ground track
Ground track

The orbit data is extracted from the following two-line orbital elements,

1 35870U 09049F   14273.50970882  .00014312  00000-0  42928-3 0  5592
2 35870 097.1572 291.5208 0003786 091.2173 055.1127 15.34564534280191
Epoch (UTC): 30 September 2014 12:13:58
Eccentricity: 0.0003786
inclination: 97.1572°
perigee height: 459 km
apogee height: 465 km
right ascension of ascending node: 291.5208°
argument of perigee: 91.2173°
revolutions per day: 15.34564534
mean anomaly at epoch: 55.1127°
orbit number at epoch: 28019

The dashed part of the orbit path shows where the satellite is in the earth's shadow,  

DLR